Torna al catalogo

KUIPER-00608

AttivoComunicazioniLEO
NORAD 69291·PAYLOAD·🇺🇸 United States

Lanciato May 29, 2026 da Vandenberg Space Force Base

Loading…

Prossimi Passaggi (prossime 24 ore)

TLE

AggiornatoSource: CelesTrak SupGP

Epoca: Sep 14, 2026, 23:12 UTC

1 69291C 26118AA  26257.96688657  .00002417  00000+0  31643-3 0  2572
2 69291  51.9015 351.0291 0000962  69.2332 201.1950 14.79923395    14

Traccia KUIPER-00608 in tempo reale con AllMySat

Download on the App Store